weather.gov     
National Weather Service

Terminal Aerodrome Forecast
NWS Homepage
This page is being discontinued on March 12, 2014.
The same data is available at this site. Please update your bookmarks.
Thank you, and we apologize for the inconvenience.
Please send an email to SR-SRH.Webmaster@noaa.gov with any concerns.


Current Version
Previous Version:    01  02  03  04  05  06  07  08  09  10  11  12  13  14  15  16  17  18  19  20  21  22  23  24  25  
[Printable]
149
FTUS44 KHUN 251730
TAFHSV
TAF
KHSV 251730Z 2518/2618 20005KT P6SM FEW250
     FM252000 20010G20KT P6SM BKN080
     FM260000 27010KT P6SM VCSH OVC050
     FM260300 29010KT 5SM -RA BR OVC025
     FM260700 31011KT 5SM -RA BR OVC009
     FM261000 32010KT 5SM -RASN OVC008
     FM261500 32010KT P6SM BKN017=


149
FTUS44 KHUN 251730
TAFHSV
TAF
KHSV 251730Z 2518/2618 20005KT P6SM FEW250
     FM252000 20010G20KT P6SM BKN080
     FM260000 27010KT P6SM VCSH OVC050
     FM260300 29010KT 5SM -RA BR OVC025
     FM260700 31011KT 5SM -RA BR OVC009
     FM261000 32010KT 5SM -RASN OVC008
     FM261500 32010KT P6SM BKN017=




U.S. Dept. of Commerce
NOAA National Weather Service
1325 East West Highway
Silver Spring, MD 20910
E-mail: w-nws.webmaster@noaa.gov
Page last modified: May 16, 2007
NATIONAL WEATHER SERVICE: for Safety, for Work, for Fun - FOR LIFE